www.pogodaiklimat.ru

Погода и климат >> Архив погоды >> Россия >> Краснодарский край >> Геленджик


АРХИВ ПОГОДЫ в Геленджике

Время (UTC), дата Ветер
(напр.,м/с)
 
Видим.   Явления Облачность Т
(С)
Тd
(С)
f
(%)
Тe
(С)
Тes
(С)
Комфортность P
(гПа)
Po
(гПа)
Тmin
(С)
Tmax
(С)
R
(мм)
R24
(мм)
S
(см)
00 16.01 С 1 10 км {ливн. осадки} 10/10 600 м
[Cb cap]
+2.5 -0.4 81 +1 +1 по сезону 1028.4 1026.4
03 16.01 В 1 10 км слабый ливневой дождь 10/10 600 м
[Cb cap]
+2.1 -0.5 83 0 0 по сезону 1027.2 1025.3 +1.1
06 16.01 штиль 0 10 км слабый ливневой дождь 10/10 300 м
[Cb cap]
+1.4 +0.1 91 0 0 по сезону 1027.0 1025.1
09 16.01 СВ 2 20 км {ливн. осадки} 10/10 600 м
[Cb cap]
+3.2 +1.8 91 0 0 по сезону 1025.3 1023.4
12 16.01 СВ 2 20 км {ливн. осадки} 10/10 1000 м
[Cb cap]
+4.9 +1.1 76 +2 +2 по сезону 1022.1 1020.2
15 16.01 В 2 10 км слабый ливневой дождь 10/10 600 м
[Cb cap]
+4.7 +1.9 82 +2 +2 по сезону 1019.0 1017.1 +5.4 4
18 16.01 В 3-10
{11}
10 км слабый ливневой дождь 10/10 300 м
[Cb cap]
+7.0 +2.2 71 +4 +4 тепло 1016.4 1014.5
21 16.01 В 3-12
{13}
10 км слабый ливневой дождь 10/10 600 м
[Cb cap]
+8.7 +3.2 68 +6 +6 тепло 1013.8 1011.9
00 17.01 ЮВ 4-11
{14}
10 км слабый ливневой дождь 10/10 300 м
[Cb cap]
+8.2 +4.7 79 +5 +5 тепло 1012.4 1010.5
03 17.01 В 3
{14}
4000 м слабый ливневой дождь 10/10 300 м
[Cb cap]
+6.6 +4.4 86 +3 +3 тепло 1010.6 1008.8 +4.5 21
06 17.01 ЮВ 1 20 км {ливн. осадки} 10/10 600 м
[Cb cap]
+7.7 +4.3 79 +7 +7 тепло 1010.8 1008.9
09 17.01 ЮВ 1 50 км 10/4 600 м
[Cb cap Ac trans Cc]
+9.7 +3.8 67 +9 +11 тепло 1011.2 1009.4
12 17.01 ЮВ 2 50 км 10/10 600 м
[Cb cap]
+9.0 +4.5 73 +7 +7 тепло 1010.4 1008.6
15 17.01 В 4-14
{14}
10 км слабый ливневой дождь 10/10 600 м
[Cb cap]
+9.1 +5.9 80 +6 +6 тепло 1009.6 1007.8 +10.1 3
18 17.01 В 2
{14}
10 км {ливн. осадки} 10/10 600 м
[Cb cap]
+9.3 +5.4 77 +8 +8 тепло 1009.8 1007.9
21 17.01 В 3
{11}
10 км 10/10 600 м
[Cb cap]
+9.2 +4.1 70 +7 +7 тепло 1008.0 1006.2
00 18.01 В 3 10 км 6/6 600 м
[Sc diur, vesp]
+9.2 +4.0 70 +7 +7 тепло 1006.7 1004.9
03 18.01 В 3 10 км 6/3 600 м
[Sc diur, vesp Ac trans Cc]
+9.4 +3.4 66 +7 +7 тепло 1003.7 1001.9 +8.8 0.0
06 18.01 В 3
{11}
50 км 3/0
[Ci fib]
+9.4 +2.9 64 +7 +8 тепло 1001.6 999.8
09 18.01 В 5-12
{13}
50 км 3/0
[Ci fib]
+13.2 +0.8 43 +12 +14 тепло 999.2 997.4
12 18.01 В 5-11
{14}
50 км 6/0
[Ci fib]
+14.5 -1.3 34 +13 +14 тепло 996.6 994.9
15 18.01 СВ 2
{15}
10 км 10/10
[Sc]
+12.2 -0.5 41 +12 +12 тепло 996.3 994.5 +14.5
18 18.01 СВ 2 10 км 10/10 600 м
[Sc]
+9.7 -3.4 40 +9 +9 тепло 997.7 995.9
21 18.01 В 1 10 км 10/0
[Ac und]
+11.1 +2.5 55 +11 +11 тепло 999.3 997.5
00 19.01 С 1 10 км 10/10 600 м
[Sc]
+7.3 +2.1 70 +7 +7 тепло 999.7 997.9
03 19.01 СВ 2 10 км в посл. час ливневой дождь 10/10 600 м
[Cb cap]
+6.0 +4.0 87 +4 +4 тепло 1000.9 999.0 +5.6
06 19.01 ЮВ 1 10 км слабый ливневой дождь 10/10 600 м
[Cb cap]
+8.4 +6.5 88 +8 +8 тепло 1003.1 1001.3
09 19.01 С 1 20 км в посл. час ливневой дождь 10/10 600 м
[Cb cap]
+8.3 +5.4 82 +8 +8 тепло 1005.6 1003.8
12 19.01 ЮВ 3 50 км {ливн. осадки} 10/10 600 м
[Cb cap]
+9.4 +5.6 77 +7 +7 тепло 1007.2 1005.4
15 19.01 З 5
{10}
10 км слабый ливневой дождь 10/10 600 м
[Cb cap]
+8.0 +5.7 85 +4 +4 тепло 1010.6 1008.8 +9.5 4
18 19.01 С 2 10 км {ливн. осадки} 10/10 600 м
[Cb cap]
+5.5 +3.6 88 +3 +3 тепло 1014.2 1012.3
21 19.01 С 1 10 км 3/3 600 м
[Sc diur, vesp]
+4.4 +1.2 80 +3 +3 тепло 1017.7 1015.8
00 20.01 В 1 10 км 10/10 600 м
[Sc]
+6.5 +2.3 75 +6 +6 тепло 1018.9 1017.1
03 20.01 В 2 10 км 10/10 600 м
[Sc]
+8.6 +3.6 71 +7 +7 тепло 1018.8 1017.0 +4.1 0.8
06 20.01 В 2 50 км 10/3 600 м
[Sc Ac As Cc]
+9.1 +3.2 67 +8 +8 тепло 1019.0 1017.2
09 20.01 ЮВ 4
{11}
50 км 10/4 600 м
[Sc Ac As]
+9.8 +3.2 63 +7 +8 тепло 1018.8 1017.0
12 20.01 ЮВ 4-10
{11}
50 км 10/5 600 м
[Sc Ac As Cc]
+10.0 +3.9 66 +8 +8 тепло 1016.9 1015.0
15 20.01 ЮВ 3
{12}
10 км 10/6 600 м
[Cb cap Ac und]
+9.6 +4.5 70 +7 +7 тепло 1016.1 1014.2 +10.1
18 20.01 ЮВ 4
{10}
10 км 10/6 600 м
[Sc Ac und]
+9.8 +6.4 79 +7 +7 тепло 1015.1 1013.2
21 20.01 ЮВ 3
{10}
10 км 10/4 600 м
[Sc Ac und]
+9.9 +6.8 81 +8 +8 тепло 1014.0 1012.2
00 21.01 ЮВ 4 10 км 10/10 300 м
[Sc]
+10.0 +7.1 82 +7 +7 тепло 1012.6 1010.8
03 21.01 В 2
{10}
10 км в посл. час ливневой дождь 10/6 300 м
[Cb cap Ac und]
+9.8 +7.6 86 +8 +8 тепло 1010.9 1009.1 +9.6 0.3
06 21.01 ЮВ 5-12
{13}
10 км {ливн. осадки} 10/6 300 м
[Cb cap Ac und]
+10.3 +7.9 85 +7 +7 тепло 1010.6 1008.7
09 21.01 Ю 2
{14}
20 км в посл. час ливневой дождь 10/8 300 м
[Cb cap Ac und]
+11.0 +7.1 77 +10 +10 тепло 1011.1 1009.3
12 21.01 З 5
{13}
50 км {ливн. осадки} 10/10 300 м
[Cb cap]
+7.1 +3.8 80 +3 +3 тепло 1015.2 1013.4
15 21.01 штиль 0 10 км 10/10 300 м
[Sc]
+6.3 +1.8 73 +6 +6 тепло 1016.6 1014.8 +11.1 0.8
18 21.01 СВ 1 10 км 8/4 600 м
[Sc Ac As]
+6.4 +2.1 74 +6 +6 тепло 1015.7 1013.9
21 21.01 СВ 2 10 км {дождь} 10/4 600 м
[Sc Ac As]
+7.8 +4.2 78 +6 +6 тепло 1013.4 1011.5
00 22.01 С 2 10 км {дождь} 10/0
[Ac As]
+7.1 +3.8 80 +5 +5 тепло 1010.5 1008.6
03 22.01 СВ 5 10 км 10/0
[Ac und]
+8.8 +0.4 56 +6 +6 тепло 1007.6 1005.8 +5.3 0.0
06 22.01 СВ 3
{10}
50 км 10/3 600 м
[Sc Ac trans Cc]
+11.2 -1.0 43 +10 +10 тепло 1005.8 1004.0
09 22.01 СВ 2 50 км 10/4 600 м
[Sc Ac und]
+12.1 +0.5 45 +12 +12 тепло 1004.9 1003.1
12 22.01 В 3 50 км 10/10 600 м
[Sc]
+13.0 +2.8 50 +12 +12 тепло 1003.6 1001.8
15 22.01 В 3
{11}
10 км в посл. час ливневой дождь 10/10 600 м
[Cb cap]
+12.2 +4.1 58 +11 +11 тепло 1003.7 1001.9 +13.4
18 22.01 В 2 10 км {ливн. осадки} 10/10 600 м
[Cb cap]
+12.8 +0.6 43 +12 +12 тепло 1003.5 1001.7
21 22.01 В 3 10 км 10/10 600 м
[Sc]
+12.9 +4.2 55 +12 +12 тепло 1003.3 1001.5

 

Местоположение метеостанции Геленджик (Краснодарский край, Россия): широта 44.57 долгота 38.08 высота над уровнем моря 15 м.

В архиве по умолчанию представлена погода в Геленджике за последнюю неделю. Архивные данные за месяц целиком и за предыдущие месяцы, начиная с января 2011 года, Вы можете получить, выбрав интересующий диапазон дат из раскрывающегося списка и нажав кнопку "Ввод!".

Внимание! Время в таблицах - всемирное. Для получения местного времени необходимо прибавить поправку, которая в Геленджике равна 3 ч.

Смотрите также архив погоды в соседних городах и на ближайших метеорологических станциях:

Погода в Новороссийске (Краснодарский край, Россия) (25 км)
Погода в Крымске (Краснодарский край, Россия) (39 км)
Погода в Джубге (Краснодарский край, Россия) (57 км)
Погода в Анапе (Краснодарский край, Россия) (72 км)
Погода в Славянске-на-Кубани (Краснодарский край, Россия) (79 км)
Погода в Горячем Ключе (Краснодарский край, Россия) (81 км)
Погода в Краснодаре (Краснодарский край, Россия) (92 км)
Погода в Туапсе (Краснодарский край, Россия) (95 км)
Погода в Горном (Краснодарский край, Россия) (100 км)
Погода в Темрюке (Краснодарский край, Россия) (100 км)

Пояснения к столбцам:

Ветер - указаны скорость ветра в м/с - средняя за 10 мин, порывы в срок и между сроками (в фигурных скобках) и направление, откуда дует ветер: С - северный, СВ - северо-восточный, В - восточный, ЮВ - юго-восточный, Ю - южный, ЮЗ - юго-западный, З - западный, СЗ - северо-западный.
Видимость - горизонтальная дальность видимости в метрах или километрах. При видимости от 1 до 10 км при отсутствии осадков обычно наблюдается дымка, при ухудшении видимости до 1 км и менее - туман. В сухую погоду видимость может ухудшаться дымом, пылью или мглою.
Явления - указаны атмосферные явления, наблюдавшиеся в срок или в последний час перед сроком; фигурными скобками обозначены явления, наблюдавшиеся между сроками (за 1-3 часа до срока); квадратными скобками обозначены град или гололедные отложения с указанием их диаметра в мм.
Облачность - указаны через наклонную черту общая и нижняя облачность в баллах и высота нижней границы облаков в метрах; квадратными скобками обозначены формы облаков: Ci - перистые, Cs - перисто-слоистые, Cc - перисто-кучевые, Ac - высококучевые, As - высокослоистые, Sc - слоисто-кучевые, Ns - слоисто-дождевые, Cu - кучевые, Cb - кучево-дождевые. Подробнее классификацию облаков см. в Атласе облаков (PDF).
T - Температура воздуха - температура, измеренная на высоте 2 м над землей.
Td - Температура точки росы - температура, при понижении до которой содержащийся в воздухе водяной пар достигнет насыщения.
f - Относительная влажность воздуха - влажноcть воздуха, измеренная на высоте 2 м над землей.
Te - Эффективная температура - температура, которую ощущает одетый по сезону человек в тени. Характеристика душности погоды. При расчете учитывается влияние влажности воздуха и скорости ветра на теплоощущения человека.
Tes - Эффективная температура на солнце - температура, которую ощущает человек, с поправкой на солнечный нагрев. Характеристика знойности погоды. Зависит от высоты солнца над горизонтом, облачности и скорости ветра. Ночью, в пасмурную погоду, а также при ветре 12 м/с и более поправка равна нулю.
P - Атмосферное давление - приведенное к уровню моря атмосферное давление.
Po - Атмосферное давление - измеренное на уровне метеостанции атмосферное давление.
Tmin - Минимальная температура - минимум температуры воздуха на высоте 2 м над землей.
Tmax - Максимальная температура - максимум температуры воздуха на высоте 2 м над землей.
R - Количество осадков - Количество выпавших осадков за период времени, мм. При наведении курсора мыши на число - период времени, за который выпало указанное количество осадков.
R24 - Количество осадков - Количество выпавших осадков за 24 часа, мм.
S - Снежный покров - Высота снежного покрова, см. При наведении курсора мыши на число - состояние снежного покрова и степень покрытия местности в баллах.